This is the latest recevied weather packets stored in our database for station/object KI4SSU. If no packets are shown the sender has not sent any weather packets the latest 1 day(s).
| Time | Temp. | Humidity | Pressure | Rain* | Wind** | Luminosity | Snow |
|---|---|---|---|---|---|---|---|
| 1778042478 | 17.78° C | - | - | 0 mm | 0.89 m/s, 339° | - | - |
| 1778042178 | 17.78° C | - | - | 0 mm | 2.24 m/s, 358° | - | - |
| 1778041878 | 18.33° C | - | - | 0 mm | 1.79 m/s, 49° | - | - |
| 1778041578 | 18.33° C | - | - | 0 mm | 2.24 m/s, 283° | - | - |
| 1778041278 | 18.33° C | - | - | 0 mm | 2.24 m/s, 24° | - | - |
| 1778040979 | 18.33° C | - | - | 0 mm | 1.79 m/s, 344° | - | - |
| 1778040679 | 18.33° C | - | - | 0 mm | 3.13 m/s, 338° | - | - |
| 1778040379 | 18.89° C | - | - | 0 mm | 2.68 m/s, 349° | - | - |
| 1778040079 | 18.89° C | - | - | 0 mm | 2.24 m/s, 1° | - | - |
| 1778039779 | 18.89° C | - | - | 0 mm | 3.58 m/s, 345° | - | - |
| 1778039479 | 19.44° C | - | - | 0 mm | 3.13 m/s, 349° | - | - |
| 1778039179 | 19.44° C | - | - | 0 mm | 3.13 m/s, 335° | - | - |
| 1778038879 | 19.44° C | - | - | 0 mm | 2.24 m/s, 6° | - | - |
| 1778038579 | 20° C | - | - | 0 mm | 2.24 m/s, 359° | - | - |
| 1778038279 | 20° C | - | - | 0 mm | 1.34 m/s, 359° | - | - |
| 1778037979 | 20° C | - | - | 0 mm | 1.34 m/s, 334° | - | - |
| 1778037679 | 20.56° C | - | - | 0 mm | 3.58 m/s, 356° | - | - |
| 1778037379 | 20.56° C | - | - | 0 mm | 3.13 m/s, 335° | - | - |
| 1778037079 | 20.56° C | - | - | 0 mm | 3.13 m/s, 359° | - | - |
| 1778036779 | 20.56° C | - | - | 0 mm | 3.13 m/s, 325° | - | - |
| 1778036179 | 20.56° C | - | - | 0 mm | 3.13 m/s, 61° | - | - |
| 1778035879 | 21.11° C | - | - | 0 mm | 0.89 m/s, 351° | - | - |
| 1778035579 | 21.11° C | - | - | 0 mm | 2.24 m/s, 141° | - | - |
| 1778035279 | 21.11° C | - | - | 0 mm | 3.58 m/s, 313° | - | - |
| 1778034679 | 21.11° C | - | - | 0 mm | 2.24 m/s, 359° | - | - |
* Rain since midnight (hover to see other rain measurements)
** Current wind speed in m/s (hover to see current wind gust speed)